GW0409 Weather Reports


Display with metric or nautical units.
time (UTC)temp
F
wind
direction
speed
MPH
gust
MPH
rain 1hr
in
rain 24hr
in
rain mn
in
humidity
%
barometer
mb
20260905085518 50 7 3.0 6.0 0.00 0.00 0.00 74 1018.4
20260905084520 50 13 3.0 6.0 0.00 0.00 0.00 74 1018.4
20260905083539 50 9 3.0 7.0 0.00 0.00 0.00 74 1018.2
20260905082559 50 19 3.0 7.0 0.00 0.00 0.00 74 1018.3
20260905081519 50 13 3.0 7.0 0.00 0.00 0.00 74 1018.3
20260905080520 50 12 3.0 6.0 0.00 0.00 0.00 74 1018.4
20260905075520 49 351 3.0 6.0 0.00 0.00 0.00 75 1018.4
20260905074520 50 347 1.0 4.0 0.00 0.00 0.00 75 1018.5
20260905073518 50 17 1.0 4.0 0.00 0.00 0.00 74 1018.5
20260905072537 50 1 1.0 3.0 0.00 0.00 0.00 73 1018.6
20260905071520 51 351 1.0 4.0 0.00 0.00 0.00 72 1018.6
20260905070519 51 3 1.0 4.0 0.00 0.00 0.00 72 1018.6
20260905065519 51 5 3.0 6.0 0.00 0.00 0.00 71 1018.6
20260905064518 52 12 3.0 5.0 0.00 0.00 0.00 71 1018.6
20260905063518 52 14 3.0 6.0 0.00 0.00 0.00 71 1018.5
20260905062519 52 358 3.0 6.0 0.00 0.00 0.00 71 1018.5
20260905061540 51 353 3.0 5.0 0.00 0.00 0.00 71 1018.4
20260905060540 51 2 4.0 8.0 0.00 0.00 0.00 71 1018.4
20260905055518 51 0 4.0 7.0 0.00 0.00 0.00 72 1018.5
20260905054517 52 341 3.0 6.0 0.00 0.00 0.00 72 1018.5
20260905053541 52 338 3.0 5.0 0.00 0.00 0.00 71 1018.5
20260905052521 52 340 2.0 5.0 0.00 0.00 0.00 71 1018.3
20260905051519 52 354 3.0 4.0 0.00 0.00 0.00 71 1018.4
20260905050520 52 323 1.0 3.0 0.00 0.00 0.00 71 1018.3
20260905045519 52 2 2.0 4.0 0.00 0.00 0.00 70 1018.2
20260905044538 53 326 1.0 3.0 0.00 0.00 0.00 69 1018.2
20260905043521 53 312 1.0 4.0 0.00 0.00 0.00 68 1018.2
20260905042520 54 313 1.0 3.0 0.00 0.00 0.00 67 1018.1
20260905041517 54 316 1.0 3.0 0.00 0.00 0.00 68 1018.1
20260905040518 54 346 1.0 3.0 0.00 0.00 0.00 67 1018.2
20260905035517 54 354 1.0 3.0 0.00 0.00 0.00 67 1018.2
20260905034518 54 268 1.0 2.0 0.00 0.00 0.00 68 1018.0
20260905033521 55 208 0.0 2.0 0.00 0.00 0.00 67 1017.9
20260905032540 55 229 1.0 3.0 0.00 0.00 0.00 66 1017.8
20260905031519 56 160 0.0 2.0 0.00 0.00 0.00 66 1017.6
20260905030518 56 213 0.0 2.0 0.00 0.00 0.00 66 1017.4
20260905025520 57 198 0.0 3.0 0.00 0.00 0.00 65 1017.3
20260905024518 58 350 0.0 2.0 0.00 0.00 0.00 64 1017.4
20260905023519 58 5 2.0 3.0 0.00 0.00 0.00 62 1017.3
20260905022541 59 1 1.0 3.0 0.00 0.00 0.00 62 1017.3
20260905021519 61 335 1.0 3.0 0.00 0.00 0.00 60 1017.1
20260905020601 62 346 0.0 3.0 0.00 0.00 0.00 57 1017.1
20260905015537 63 31 0.0 3.0 0.00 0.00 0.00 55 1016.8
20260905014517 64 213 1.0 3.0 0.00 0.00 0.00 54 1016.7
20260905013520 64 168 1.0 3.0 0.00 0.00 0.00 55 1016.6
20260905012520 65 79 1.0 4.0 0.00 0.00 0.00 55 1016.4
20260905011520 65 86 1.0 4.0 0.00 0.00 0.00 54 1016.4
20260905010517 65 29 1.0 3.0 0.00 0.00 0.00 54 1016.2
20260905005538 66 97 0.0 2.0 0.00 0.00 0.00 55 1016.1
20260905004518 66 37 1.0 5.0 0.00 0.00 0.00 53 1016.0
20260905003603 67 48 1.0 4.0 0.00 0.00 0.00 51 1016.0
20260905002520 68 140 0.0 2.0 0.00 0.00 0.00 51 1015.9
20260905001518 68 66 1.0 4.0 0.00 0.01 0.00 51 1015.8
20260905000518 68 238 1.0 3.0 0.00 0.01 0.00 50 1015.7
20260904235519 66 136 1.0 5.0 0.00 0.01 0.00 52 1015.7
20260904234520 66 19 1.0 4.0 0.00 0.01 0.00 56 1015.7
20260904233519 66 350 1.0 3.0 0.00 0.01 0.00 51 1015.6
20260904232519 67 124 1.0 5.0 0.00 0.01 0.00 51 1015.6
20260904231519 68 57 2.0 6.0 0.00 0.01 0.00 46 1015.6
20260904230542 68 23 2.0 5.0 0.00 0.01 0.00 45 1015.7
20260904225517 67 12 3.0 9.0 0.00 0.01 0.00 46 1015.6
20260904224518 66 34 3.0 7.0 0.00 0.01 0.00 46 1015.7
20260904223542 66 18 3.0 9.0 0.00 0.01 0.00 46 1015.6
20260904222520 66 24 3.0 8.0 0.00 0.01 0.00 46 1015.6
20260904221518 66 24 5.0 9.0 0.00 0.01 0.00 46 1015.7
20260904220518 66 29 4.0 9.0 0.00 0.01 0.00 46 1015.7
20260904215518 65 31 4.0 10.0 0.00 0.01 0.00 46 1015.8
20260904214540 65 14 5.0 10.0 0.00 0.01 0.00 46 1015.8
20260904213518 65 23 6.0 11.0 0.00 0.01 0.00 47 1015.9
20260904212518 65 23 4.0 9.0 0.00 0.01 0.00 46 1015.9
20260904211519 65 62 2.0 9.0 0.00 0.01 0.00 47 1016.0
20260904210519 64 16 4.0 11.0 0.00 0.01 0.00 47 1016.0
20260904205519 64 27 4.0 9.0 0.00 0.01 0.00 47 1016.1
20260904204516 64 30 5.0 10.0 0.00 0.01 0.00 48 1016.0
20260904203519 63 15 4.0 10.0 0.00 0.01 0.00 48 1016.0
20260904202520 64 37 5.0 12.0 0.00 0.01 0.00 48 1016.0
20260904201519 63 19 4.0 9.0 0.00 0.01 0.00 48 1016.0
20260904200538 63 29 5.0 11.0 0.00 0.01 0.00 49 1016.1
20260904195517 63 5 4.0 9.0 0.00 0.01 0.00 48 1016.2
20260904194517 62 31 4.0 9.0 0.00 0.01 0.00 49 1016.4
20260904193520 62 30 6.0 10.0 0.00 0.01 0.00 49 1016.5
20260904192517 62 21 3.0 8.0 0.00 0.01 0.00 50 1016.6
20260904191518 62 22 5.0 13.0 0.00 0.01 0.00 50 1016.6
20260904190518 61 44 4.0 8.0 0.00 0.01 0.00 52 1016.5
20260904185540 61 19 4.0 9.0 0.00 0.01 0.00 52 1016.4
20260904184518 60 28 5.0 13.0 0.00 0.01 0.00 53 1016.4
20260904183518 60 29 4.0 10.0 0.00 0.01 0.00 54 1016.5
20260904182559 60 29 4.0 12.0 0.00 0.01 0.00 56 1016.4
20260904181519 59 18 5.0 11.0 0.00 0.01 0.00 57 1016.5
20260904180522 59 18 4.0 10.0 0.00 0.01 0.00 57 1016.4
20260904175522 58 15 4.0 10.0 0.00 0.01 0.00 60 1016.5
20260904174542 57 356 4.0 9.0 0.00 0.01 0.00 63 1016.5
20260904173541 57 7 5.0 10.0 0.00 0.01 0.00 63 1016.5
20260904172544 57 2 4.0 6.0 0.00 0.01 0.00 63 1016.5
20260904171524 57 30 6.0 10.0 0.00 0.01 0.00 63 1016.5
20260904170519 57 13 5.0 10.0 0.00 0.01 0.00 64 1016.4
20260904165518 56 3 4.0 9.0 0.00 0.01 0.00 66 1016.5
20260904164523 56 14 4.0 9.0 0.00 0.01 0.00 66 1016.4
20260904163523 56 13 4.0 8.0 0.00 0.01 0.00 67 1016.3
20260904162520 56 6 5.0 13.0 0.00 0.01 0.00 66 1016.4
20260904161517 56 5 4.0 7.0 0.00 0.01 0.00 68 1016.4
20260904160518 55 7 3.0 8.0 0.00 0.01 0.00 69 1016.3
20260904155538 54 9 4.0 7.0 0.00 0.01 0.00 70 1016.2
20260904154517 54 357 4.0 10.0 0.00 0.01 0.00 70 1016.0
20260904153518 54 5 4.0 9.0 0.00 0.01 0.00 70 1015.9
20260904152520 54 4 4.0 8.0 0.00 0.01 0.00 70 1015.8
20260904151518 54 26 6.0 12.0 0.00 0.01 0.00 71 1015.7
20260904150540 54 359 5.0 10.0 0.00 0.01 0.00 72 1015.8
20260904145520 54 0 4.0 12.0 0.00 0.01 0.00 73 1015.7
20260904144519 53 347 4.0 8.0 0.00 0.01 0.00 73 1015.6
20260904143520 53 350 4.0 8.0 0.00 0.01 0.00 75 1015.5
20260904142520 53 355 4.0 8.0 0.00 0.01 0.00 76 1015.3
20260904141519 53 0 4.0 8.0 0.00 0.01 0.00 76 1015.2
20260904140619 54 4 4.0 11.0 0.00 0.01 0.00 77 1015.0
20260904135519 54 0 4.0 8.0 0.00 0.01 0.00 76 1014.9
20260904134519 54 17 5.0 11.0 0.00 0.01 0.00 76 1014.7
20260904133519 54 12 5.0 8.0 0.00 0.01 0.00 76 1014.6
20260904132523 54 7 4.0 7.0 0.00 0.01 0.00 77 1014.6
20260904131520 55 6 4.0 10.0 0.00 0.01 0.00 76 1014.4
20260904130520 55 6 5.0 9.0 0.00 0.01 0.00 76 1014.2
20260904125541 55 10 5.0 9.0 0.00 0.01 0.00 76 1014.1
20260904124521 55 358 4.0 9.0 0.00 0.01 0.00 76 1014.0
20260904123520 55 4 4.0 9.0 0.00 0.01 0.00 76 1013.9
20260904122520 55 6 4.0 9.0 0.00 0.01 0.00 76 1013.8
20260904121521 55 6 4.0 8.0 0.00 0.01 0.00 77 1013.7
20260904120521 55 4 4.0 9.0 0.00 0.01 0.00 77 1013.6
20260904115521 55 6 5.0 10.0 0.00 0.01 0.00 77 1013.4
20260904114522 55 8 4.0 8.0 0.00 0.01 0.00 78 1013.3
20260904113523 55 8 4.0 9.0 0.00 0.01 0.00 78 1013.1
20260904112519 55 4 5.0 12.0 0.00 0.01 0.00 78 1013.0
20260904111519 55 6 5.0 9.0 0.00 0.01 0.00 78 1012.9
20260904110521 56 8 5.0 11.0 0.00 0.01 0.00 77 1012.7
20260904105521 56 5 5.0 11.0 0.00 0.01 0.00 77 1012.6
20260904104519 56 11 5.0 9.0 0.00 0.01 0.00 78 1012.5
20260904103518 56 11 5.0 12.0 0.00 0.01 0.00 78 1012.4
20260904102540 56 10 5.0 10.0 0.00 0.01 0.00 77 1012.4
20260904101520 56 7 4.0 7.0 0.00 0.01 0.00 77 1012.4
20260904100518 56 7 4.0 8.0 0.00 0.01 0.00 77 1012.3
20260904095518 56 2 3.0 7.0 0.00 0.01 0.00 76 1012.2
20260904094518 56 3 3.0 6.0 0.00 0.01 0.00 76 1012.0
20260904093518 56 359 4.0 9.0 0.00 0.01 0.00 76 1011.9
20260904092518 57 1 4.0 8.0 0.00 0.01 0.00 75 1011.9
20260904091520 57 358 5.0 13.0 0.00 0.01 0.00 75 1011.9
20260904090540 57 4 5.0 11.0 0.00 0.01 0.00 75 1011.8